Location: ??
(34.9170°N, 135.5016°E)
Time: 14:25:39
(UTC+00:00)

S-56A Canister/Altair - Pass Details

Date: 10 March 2021
Orbit: 632 x 2500 km, 38.9° (Epoch: 16 April)

Event Time Altitude Azimuth Distance (km) Brightness Sun altitude
Rises 10:30:41 0° 289° (WNW) 6,181 13.7 -19.1°
Reaches altitude 10° 10:35:45 10° 279° (W) 5,120 12.9 -20.1°
Maximum altitude 10:46:38 26° 231° (SW) 3,605 11.3 -22.3°
Drops below altitude 10° 10:55:45 10° 180° (S) 4,209 11.1 -24.1°
Sets 10:59:28 0° 168° (SSE) 4,918 11.4 -24.9°
